Location: Hurecourt
(47.9030°N, 6.0653°E)
Time: 10:48:38
(UTC+00:00)

CZ-4 R/B - Pass Details

Date: 14 July 2020
Orbit: 682 x 752 km, 98.5° (Epoch: 05 August)

Event Time Altitude Azimuth Distance (km) Brightness Sun altitude
Rises 00:01:09 0° 15° (NNE) 3,082 8.6 -20.3°
Reaches altitude 10° 00:03:24 10° 17° (NNE) 2,169 7.5 -20.3°
Maximum altitude 00:08:09 78° 104° (ESE) 728 3.8 -20.2°
Enters shadow 00:09:36 45° 181° (S) 962 4.0 -20.2°
